Lid_Strength_Index
6 5 5 5 5 5 5 5 5 4 5 4 3 3 3 4 4 4 5 5 6 6 6 5 5 4 3 3 3 2 1 1
5 5 5 5 5 5 5 5 5 5 5 5 5 5 3 4 4 5 5 6 6 7 6 6 6 6 6 4 4 4 3 2
6 6 5 5 6 5 5 5 5 5 5 5 4 4 3 3 4 4 5 5 6 7 7 7 8 7 6 5 4 5 4 3
6 6 7 7 7 6 6 6 6 6 6 5 5 4 4 4 4 4 4 4 5 6 7 7 8 7 8 7 5 5 6 5
6 7 7 7 7 6 6 6 6 6 6 7 6 6 7 6 5 5 4 4 5 6 7 7 8 8 8 8 7 6 5 7
7 8 7 7 6 6 6 5 6 6 6 7 7 7 7 7 7 7 7 6 6 7 7 7 8 8 8 8 8 7 6 6
7 7 7 7 7 6 6 7 7 7 7 7 7 8 8 7 8 8 8 8 8 8 8 8 8 8 9 9 8 8 7 6
7 7 7 7 7 8 7 7 8 7 7 8 8 8 8 8 9 9 9 9 10 9 9 9 9 9 9 9 9 8 8 8
7 7 7 8 8 8 8 7 8 8 8 8 8 8 8 8 9 9 9 10 10 9 9 9 9 9 9 9 9 9 9 9
7 7 7 8 8 9 8 8 8 8 8 8 8 8 8 9 8 9 9 9 10 10 10 10 10 9 10 10 10 11 11 11
7 7 7 8 8 8 8 8 9 8 8 8 8 8 8 8 9 9 9 9 10 10 10 11 11 11 11 11 11 11 12 11
7 7 7 7 8 8 8 8 8 9 9 8 8 8 8 8 9 9 9 9 9 10 10 11 12 12 12 11 11 11 12 12
6 6 7 7 8 8 9 8 9 8 8 8 8 8 8 8 9 9 8 9 9 9 10 11 12 13 13 13 12 11 12 12
6 6 7 7 8 8 8 8 8 8 8 7 8 9 9 9 9 9 9 10 10 10 10 12 13 14 14 13 12 12 13 13
6 6 7 8 8 8 9 8 8 8 8 8 9 9 9 9 9 10 10 10 11 10 11 12 14 14 14 14 12 13 13 13
6 7 8 8 8 8 8 8 8 8 9 9 10 9 10 10 10 10 10 10 11 10 11 13 14 15 15 14 13 14 14 15
6 6 8 9 9 9 8 8 8 8 9 10 10 10 11 10 10 10 11 11 12 12 12 13 14 14 13 13 12 13 14 15
6 6 7 9 9 8 9 9 9 9 10 10 11 10 10 11 11 11 11 12 13 14 14 13 15 15 14 13 12 13 14 15
6 7 8 8 9 9 8 9 9 10 11 12 10 10 11 11 12 12 12 12 13 14 15 15 15 14 14 13 13 13 14 15